Home   Weather   Hildesheim   Past weeks

Flag for Germany Past Weather in Hildesheim, Lower Saxony, Germany — Yesterday and Last 2 Weeks

Now
23 °F

Cold.


Feels Like: 17 °F
Forecast: 20 / 28 °F
Wind: 5 mph from Northwest

Location: Hannover

Current Time: Jan 17, 2017 at 4:09:54 am

Latest Report: Jan 17, 2017 at 3:50 am


Visibility: 1 mi

Pressure: 30.54 "Hg

Humidity: 93%

Dew Point: 21 °F

Location of HildesheimLocation

Past Weather in Hildesheim — Graph

°F

Hildesheim Temperature Yesterday

Maximum temperature yesterday: 28 °F (at 12:50 am)
Minimum temperature yesterday: 21 °F (at 8:50 am)
Average temperature yesterday: 25 °F

High & Low Weather Summary for the Past Weeks

 TemperatureHumidityPressure
High43 °F (Jan 4, 2:50 am)100% (Jan 2, 2:20 am)30.77 "Hg (Jan 2, 2:20 am)
Low12 °F (Jan 6, 5:20 am)51% (Jan 4, 9:50 pm)28.94 "Hg (Jan 13, 4:20 am)
Average32 °F86%30.03 "Hg
* Reported Jan 2 2:20 am — Jan 17 2:50 am, Hildesheim, Weather by CustomWeather, © 2017

Note: Actual official high and low records may vary slightly from our data, if they occured in-between our weather recording intervals... More about our weather records

Advertising

Hildesheim Weather History for the Previous 24 Hours

Scroll right to see more
 ConditionsComfort  
Time TempWeatherWind HumidityBarometerVisibility
2:50 am
Tue, Jan 17
23 °FCold.5 mph100%30.51 "Hg1 mi
2:20 am23 °FIce fog.3 mph100%30.51 "Hg1 mi
1:50 am25 °FIce fog.5 mph93%30.51 "Hg1 mi
1:20 am25 °FIce fog.3 mph93%30.51 "Hg1 mi
12:50 am25 °FIce fog.2 mph93%30.51 "Hg1 mi
12:20 am25 °FIce fog.3 mph93%30.51 "Hg1 mi
11:50 pm
Mon, Jan 16
25 °FIce fog.2 mph93%30.48 "Hg1 mi
11:20 pm25 °FIce fog.3 mph93%30.48 "Hg1 mi
10:50 pm25 °FIce fog.5 mph100%30.48 "Hg1 mi
10:20 pm25 °FCold.3 mph100%30.48 "Hg1 mi
9:50 pm27 °FIce fog.3 mph93%30.45 "Hg1 mi
9:20 pm27 °FIce fog.3 mph93%30.45 "Hg2 mi
8:50 pm27 °FIce fog.3 mph93%30.45 "Hg2 mi
8:20 pm27 °FIce fog.3 mph93%30.42 "Hg2 mi
7:50 pm25 °FIce fog.3 mph100%30.42 "Hg2 mi
7:20 pm25 °FIce fog.5 mph100%30.42 "Hg1 mi
6:50 pm25 °FIce fog.5 mph100%30.42 "Hg1 mi
6:20 pm27 °FIce fog.5 mph93%30.39 "Hg1 mi
5:50 pm27 °FIce fog.3 mph93%30.39 "Hg1 mi
5:20 pm27 °FIce fog.3 mph93%30.39 "Hg1 mi
4:50 pm27 °FIce fog.3 mph93%30.39 "Hg1 mi
4:20 pm27 °FIce fog.5 mph100%30.39 "Hg1 mi
3:50 pm27 °FIce fog.5 mph100%30.36 "Hg1 mi
3:20 pm27 °FIce fog.3 mph100%30.36 "Hg1 mi
2:50 pm27 °FIce fog.5 mph100%30.36 "Hg1 mi
2:20 pm27 °FIce fog.3 mph100%30.33 "Hg1 mi
1:50 pm27 °FIce fog.3 mph93%30.33 "Hg1 mi
1:20 pm27 °FIce fog.3 mph93%30.33 "Hg1 mi
12:50 pm25 °FIce fog.3 mph100%30.33 "Hg1 mi
12:20 pm25 °FIce fog.2 mph100%30.33 "Hg1 mi
11:50 am25 °FIce fog.2 mph93%30.33 "Hg0 mi
11:20 am25 °FIce fog.3 mph93%30.33 "Hg0 mi
10:50 am23 °FIce fog.3 mph100%30.33 "Hg0 mi
10:20 am23 °FIce fog.2 mph100%30.33 "Hg0 mi
9:50 am23 °FIce fog.2 mph100%30.30 "Hg0 mi
9:20 am23 °FIce fog.2 mph93%30.30 "Hg0 mi
8:50 am21 °FIce fog.2 mph100%30.30 "Hg1 mi
8:20 am23 °FIce fog.3 mph93%30.30 "Hg0 mi
7:50 am23 °FIce fog.3 mph93%30.27 "Hg0 mi
7:20 am23 °FIce fog.3 mph93%30.27 "Hg0 mi
6:50 am23 °FIce fog.3 mph93%30.27 "Hg0 mi
6:20 am23 °FIce fog.2 mph93%30.24 "Hg0 mi
5:50 am23 °FIce fog.3 mph100%30.24 "Hg0 mi
5:20 am25 °FIce fog.3 mph93%30.24 "Hg0 mi
4:50 am23 °FIce fog.3 mph100%30.21 "Hg0 mi
4:20 am25 °FIce fog.2 mph93%30.21 "Hg0 mi
Weather by CustomWeather, © 2017

See weather overviewHow to use our weather pages